Location: Heiligenberg
(48.5381°N, 7.3897°E)
Time: 20:22:28
(UTC+00:00)

Cosmos 2278 Rocket - Pass Details

Date: 26 May 2022
Orbit: 840 x 846 km, 71.0° (Epoch: 02 July)

Event Time Altitude Azimuth Distance (km) Brightness Sun altitude
Rises 01:36:45 0° 320° (NW) 3,417 5.6 -14.6°
Reaches altitude 10° 01:39:56 10° 302° (WNW) 2,476 4.6 -14.3°
Maximum altitude 01:43:39 18° 261° (W) 1,946 3.7 -14.0°
Enters shadow 01:45:17 16° 240° (WSW) 2,052 3.7 -13.9°
